CZ-6A DEB, 55901

Orbit data source: Space-Track

CZ-6A DEB, 55901 is space debris in SSO originally from a launch on Fri, 11 Nov 2022 UTC launched from the Taiyaun Space Center, China (TSC). Debris objects in space refer to the collection of defunct objects orbiting the Earth. Examples of debris include non-operational satellites, rocket bodies, and fragments generated from explosions, collisions, or faulty payload assembly.

Loading next visibility...
Identifier
55901, 2022-151AAZ
Orbit
SSO
Country
Flag of CNCN / PRC
Related business
Manufacturer
SAST
Mission
Spacecraft
Bus & Motor
Unknown
Mass
Unknown
Launch date (UTC)
2022-11-11 (4 years ago)
Launch vehicle
Unknown
Launch site
Taiyaun Space Center, China (TSC)
Object type
Payload
Rocket body
Debris
Shape & HBR
Unknown shape, 0.1 m
Radar Cross Section
Small (<0.1 m²)

Expand to show TLE details & history
Last TLE update: 16 hours ago

TLE from 16 hours ago
0 CZ-6A DEB
1 55901U 22151AAZ 26236.38120193  .00000486  00000-0  32917-3 0  9990
2 55901  98.8776 219.9900 0080062 200.5373 159.2569 14.03387697187240
Epoch: 2026-08-24T09:08Z
TLE epoch observation values (Epoch: 2026-08-24T09:08:55.846Z)
Latitude
-0.00008°
Longitude
110.0936°
Altitude
939.401 km
Speed
7.354 km/s
True Right ascension
14h 39m 57s
True Declination
0° 00' 00"
Sunlit
Object was in daylight at epoch
Visualization orbit readout
Latitude
Unknown
Longitude
Unknown
Altitude
Unknown
Speed
Unknown
Apparent Right ascension
Unknown
Apparent Declination
Unknown
Sunlit
N/A
Visualization observer readout
Local Sidereal Time
16:39:07
Azimuth
Unknown
Elevation
Unknown
Doppler factor
Unknown
Orbital elements
Apogee altitude
937.381 km
Perigee altitude
821.172 km
Semi-major axis
7,257.413 km
Eccentricity
0.00801
Inclination
98.8776°
RAAN
219.99°
Arg. of periapsis
200.5373°
True anomaly
159.57882°
Mean anomaly
159.2569°
Eccentric anomaly
159.41816°
Mean motion
3.51051 °/min
Orbital period
102.55 mins
BSTAR
0.00032917
Loading maneuver chart data...
Computing Atmospheric mass density...
Loading historical data...
Loading historical data...
Loading historical data...
Loading historical data...
Loading historical data...
Loading historical data...
Loading historical data...

Documentation

Showing up to 5 results
|